Home > Time Zones > World Clock > Weather > India > Gonda > Past weeks

Flag Weather past 2 weeks in Gonda, Uttar Pradesh, India

Now
50 °F

Fog.


Feels Like: 50 °F
Forecast: 56 / 80 °F
Wind: No wind

Location: Lucknow / Amausi

Current Time: Nov 23, 2014 at 7:05:13 AM

Latest Report: Nov 23, 2014 at 6:30 AM


Visibility: 1 mi

Pressure: 30.80 "Hg

Humidity: 88%

Dew point: 46 °F

Location of GondaLocation

Historic Weather in Gonda — Graph

°F

Gonda temperature yesterday

Maximum temperature yesterday: 81 °F (at 2:30 PM)
Minimum temperature yesterday: 55 °F (at 1:00 AM)
Average temperature yesterday: 67 °F

Past Weeks' High & Low Weather Summary

 TemperatureHumidityPressure
High88 °F (Nov 9, 2:30 PM)94% (Nov 9, 3:00 AM)30.09 "Hg (Nov 9, 3:00 AM)
Low50 °F (Nov 17, 5:30 AM)24% (Nov 15, 2:30 PM)29.86 "Hg (Nov 10, 2:00 PM)
Average70 °F59%29.96 "Hg
* Reported Nov 8 5:30 AM — Nov 23 5:30 AM, Gonda, Weather by CustomWeather, © 2014

Note: Actual official high and low records may vary slightly from our data, if they occured in-between our weather recording intervals... More about our weather records

Advertising

Gonda weather history for previous 24 hours

 ConditionsComfort  
Time TempWeatherWind HumidityBarometerVisibility
5:30 AM
Nov 23
52 °FFog.No wind88%29.92 "Hg1 mi
5:00 AM52 °FFog.No wind88%29.92 "Hg1 mi
3:00 AM52 °FFog.No wind88%29.92 "Hg1 mi
2:00 AM52 °FFog.No wind88%29.92 "Hg1 mi
1:00 AM54 °FFog.No wind82%29.95 "Hg1 mi
12:00 AM54 °FFog.No wind88%29.95 "Hg1 mi
11:00 PM
Nov 22
55 °FHaze.2 mph82%29.95 "Hg1 mi
10:00 PM57 °FHaze.No wind82%29.95 "Hg1 mi
9:00 PM61 °FHaze.No wind72%29.95 "Hg2 mi
8:30 PM61 °FHaze.No wind72%29.92 "Hg2 mi
8:00 PM64 °FHaze.No wind73%29.92 "Hg2 mi
7:30 PM64 °FHaze.No wind73%29.92 "Hg2 mi
7:00 PM66 °FHaze.No wind68%29.89 "Hg2 mi
6:30 PM66 °FHaze.No wind68%29.89 "Hg2 mi
6:00 PM68 °FHaze.No wind64%29.86 "Hg2 mi
5:00 PM79 °FHaze.No wind37%29.86 "Hg2 mi
4:30 PM79 °FHaze.No wind37%29.86 "Hg2 mi
4:00 PM81 °FHaze.No wind32%29.86 "Hg2 mi
3:30 PM81 °FHaze.No wind32%29.86 "Hg2 mi
3:00 PM81 °FHaze.No wind32%29.86 "Hg2 mi
2:30 PM81 °FHaze.No wind32%29.86 "Hg2 mi
2:00 PM79 °FHaze.3 mph37%29.86 "Hg2 mi
1:30 PM79 °FHaze.5 mph37%29.89 "Hg2 mi
1:00 PM79 °FHaze.5 mph34%29.89 "Hg2 mi
12:30 PM79 °FHaze.5 mph34%29.92 "Hg2 mi
12:00 PM75 °FHaze.2 mph41%29.92 "Hg2 mi
11:30 AM75 °FHaze.2 mph41%29.95 "Hg2 mi
11:00 AM73 °FHaze.2 mph47%29.98 "Hg2 mi
10:00 AM68 °FFog.3 mph53%29.98 "Hg1 mi
9:30 AM64 °FFog.No wind60%29.98 "Hg1 mi
8:00 AM55 °FFog.No wind88%29.95 "Hg1 mi
7:30 AM55 °FFog.No wind88%29.95 "Hg1 mi
Weather by CustomWeather, © 2014

See weather overviewHow to use our weather pages